Weather History for KSLH - May, 2013

Change the Weather History Date:

Friday, May 24, 2013

  Actual Average (KPLN) Record (KPLN)
Temperature  
Mean Temperature 46 °F -  
Max Temperature 56 °F 69 °F 87 °F (1975)
Min Temperature 35 °F 43 °F 18 °F (1956)
Degree Days  
Heating Degree Days 20    
Moisture  
Dew Point 31 °F    
Average Humidity 58    
Maximum Humidity 83    
Minimum Humidity 39    
Precipitation  
Precipitation 0.00 in - - ()
Sea Level Pressure  
Sea Level Pressure 30.34 in    
Wind  
Wind Speed 8 mph (NNW)    
Max Wind Speed 12 mph    
Max Gust Speed 17 mph    
Visibility 10 miles    
Events      
Averages and records for this station are not official NWS values.
T = Trace of Precipitation, MM = Missing Value Source: NWS Daily Summary

Daily Weather History Graph

Daily Weather History Graph

Search for Another Location

Airport or City:

Trip Planner

Search our weather history database for the weather conditions in past years. The results will help you decide how hot, cold, wet, or windy it might be!

Date:

Astronomy

May. 24, 2013 Rise Set
Actual Time 5:57 AM EDT 9:12 PM EDT
Civil Twilight 5:21 AM EDT 9:48 PM EDT
Nautical Twilight 4:34 AM EDT 10:36 PM EDT
Astronomical Twilight 3:36 AM EDT 11:34 PM EDT
Moon 8:52 PM EDT (5/24) 5:31 AM EDT (5/24)
Length of Visible Light 16h 27m
Length of Day
15h 15m
Full, 100% of the Moon is Illuminated
May 24
Full
May 25
Full
May 31
Last Quarter
Jun 8
New
Jun 16
First Quarter

Hourly Weather History & Observations

Time (EDT) Temp. Windchill Dew Point Humidity Pressure Visibility Wind Dir Wind Speed Gust Speed Precip Events Conditions
12:15 AM 41.4 °F 35.7 °F 32.5 °F 71% 30.25 in 10.0 mi North 9.2 mph - N/A   Clear
12:35 AM 41.0 °F 36.4 °F 32.0 °F 70% 30.25 in 10.0 mi North 6.9 mph - N/A   Clear
12:55 AM 40.8 °F 36.2 °F 32.0 °F 71% 30.26 in 10.0 mi North 6.9 mph - N/A   Clear
1:15 AM 40.6 °F 35.4 °F 31.8 °F 71% 30.26 in 10.0 mi NNE 8.1 mph - N/A   Clear
1:35 AM 40.1 °F 36.1 °F 31.1 °F 70% 30.28 in 10.0 mi NNE 5.8 mph - N/A   Clear
1:55 AM 39.9 °F 34.5 °F 30.0 °F 68% 30.28 in 10.0 mi NNE 8.1 mph - N/A   Clear
2:15 AM 39.6 °F 35.4 °F 29.3 °F 67% 30.28 in 10.0 mi North 5.8 mph - N/A   Clear
2:36 AM 39.2 °F 33.6 °F 29.1 °F 67% 30.28 in 10.0 mi NNE 8.1 mph - N/A   Clear
2:55 AM 39.0 °F 32.3 °F 28.6 °F 66% 30.28 in 10.0 mi NNE 10.4 mph - N/A   Clear
3:15 AM 38.3 °F 32.5 °F 28.2 °F 67% 30.28 in 10.0 mi NNE 8.1 mph - N/A   Clear
3:35 AM 37.2 °F 31.9 °F 28.9 °F 72% 30.29 in 10.0 mi North 6.9 mph - N/A   Scattered Clouds
3:55 AM 37.4 °F 34.9 °F 28.4 °F 70% 30.29 in 10.0 mi North 3.5 mph - N/A   Clear
4:16 AM 37.0 °F 31.0 °F 28.2 °F 70% 30.30 in 10.0 mi North 8.1 mph - N/A   Clear
4:35 AM 37.4 °F 32.1 °F 27.3 °F 67% 30.31 in 10.0 mi North 6.9 mph - N/A   Clear
4:55 AM 36.5 °F 31.0 °F 27.5 °F 70% 30.31 in 10.0 mi North 6.9 mph - N/A   Clear
5:15 AM 36.5 °F 33.9 °F 27.3 °F 69% 30.31 in 10.0 mi North 3.5 mph - N/A   Clear
5:35 AM 35.6 °F 30.7 °F 27.5 °F 72% 30.32 in 10.0 mi North 5.8 mph - N/A   Clear
5:55 AM 35.6 °F 29.9 °F 28.0 °F 74% 30.33 in 10.0 mi North 6.9 mph - N/A   Clear
6:15 AM 36.5 °F 31.0 °F 28.4 °F 72% 30.33 in 10.0 mi North 6.9 mph - N/A   Clear
6:35 AM 37.4 °F 32.8 °F 28.9 °F 71% 30.34 in 10.0 mi North 5.8 mph - N/A   Clear
6:55 AM 38.5 °F 33.4 °F 29.3 °F 70% 30.34 in 10.0 mi North 6.9 mph - N/A   Clear
7:15 AM 39.4 °F 32.7 °F 29.1 °F 67% 30.35 in 10.0 mi North 10.4 mph - N/A   Clear
7:35 AM 40.1 °F 33.2 °F 29.3 °F 65% 30.36 in 10.0 mi North 11.5 mph - N/A   Clear
7:56 AM 40.5 °F 34.1 °F 28.4 °F 62% 30.36 in 10.0 mi NNE 10.4 mph 16.1 mph N/A   Clear
8:15 AM 41.0 °F 34.7 °F 27.9 °F 60% 30.37 in 10.0 mi North 10.4 mph - N/A   Clear
8:35 AM 41.5 °F 35.4 °F 27.0 °F 56% 30.38 in 10.0 mi North 10.4 mph 17.3 mph N/A   Clear
8:55 AM 42.1 °F 36.1 °F 27.0 °F 55% 30.39 in 10.0 mi North 10.4 mph - N/A   Clear
9:16 AM 42.6 °F 37.2 °F 27.0 °F 54% 30.38 in 10.0 mi North 9.2 mph - N/A   Clear
9:35 AM 43.0 °F 37.2 °F 27.7 °F 55% 30.39 in 10.0 mi North 10.4 mph - N/A   Clear
9:55 AM 43.3 °F 37.2 °F 28.6 °F 56% 30.39 in 10.0 mi NW 11.5 mph 17.3 mph N/A   Clear
10:15 AM 43.7 °F 40.3 °F 28.2 °F 54% 30.40 in 10.0 mi North 5.8 mph - N/A   Clear
10:35 AM 43.5 °F 40.1 °F 28.4 °F 55% 30.39 in 10.0 mi North 5.8 mph - N/A   Clear
10:56 AM 44.4 °F 39.5 °F 28.9 °F 55% 30.39 in 10.0 mi NNW 9.2 mph - N/A   Clear
11:15 AM 44.8 °F 40.4 °F 28.6 °F 53% 30.38 in 10.0 mi North 8.1 mph - N/A   Clear
11:35 AM 45.9 °F 40.8 °F 29.5 °F 53% 30.38 in 10.0 mi NNW 10.4 mph - N/A   Clear
11:55 AM 46.6 °F - 29.8 °F 52% 30.38 in 10.0 mi North 8.1 mph - N/A   Clear
12:15 PM 47.8 °F - 30.0 °F 50% 30.38 in 10.0 mi North 6.9 mph - N/A   Clear
12:35 PM 48.7 °F - 30.4 °F 49% 30.38 in 10.0 mi NNW 9.2 mph - N/A   Clear
12:55 PM 48.7 °F - 29.8 °F 48% 30.38 in 10.0 mi NNW 10.4 mph - N/A   Clear
1:15 PM 50.0 °F - 30.9 °F 48% 30.37 in 10.0 mi North 9.2 mph - N/A   Clear
1:35 PM 50.4 °F - 30.6 °F 47% 30.37 in 10.0 mi North 6.9 mph - N/A   Clear
1:55 PM 51.1 °F - 30.4 °F 45% 30.37 in 10.0 mi NNW 6.9 mph - N/A   Clear
2:15 PM 51.8 °F - 31.5 °F 46% 30.37 in 10.0 mi NNW 6.9 mph - N/A   Clear
2:35 PM 52.0 °F - 31.3 °F 45% 30.37 in 10.0 mi North 9.2 mph - N/A   Clear
2:55 PM 53.4 °F - 32.7 °F 45% 30.37 in 10.0 mi NNE 9.2 mph - N/A   Clear
3:15 PM 53.6 °F - 32.9 °F 45% 30.36 in 10.0 mi North 9.2 mph - N/A   Clear
3:36 PM 53.4 °F - 34.2 °F 48% 30.36 in 10.0 mi North 8.1 mph - N/A   Clear
3:55 PM 52.5 °F - 32.4 °F 46% 30.35 in 10.0 mi NNE 10.4 mph - N/A   Clear
4:15 PM 53.2 °F - 32.4 °F 45% 30.35 in 10.0 mi North 9.2 mph - N/A   Clear
4:35 PM 54.5 °F - 32.9 °F 44% 30.34 in 10.0 mi North 8.1 mph - N/A   Clear
4:55 PM 55.6 °F - 34.7 °F 45% 30.34 in 10.0 mi North 11.5 mph - N/A   Clear
5:15 PM 56.3 °F - 34.0 °F 43% 30.33 in 10.0 mi North 9.2 mph - N/A   Clear
5:35 PM 56.7 °F - 32.4 °F 40% 30.33 in 10.0 mi WNW 9.2 mph - N/A   Clear
5:55 PM 56.1 °F - 31.8 °F 40% 30.33 in 10.0 mi NW 10.4 mph 16.1 mph N/A   Clear
6:15 PM 55.8 °F - 31.3 °F 39% 30.33 in 10.0 mi West 9.2 mph - N/A   Clear
6:35 PM 55.0 °F - 32.0 °F 42% 30.32 in 10.0 mi WNW 9.2 mph - N/A   Clear
6:55 PM 55.0 °F - 32.0 °F 42% 30.32 in 10.0 mi WNW 10.4 mph - N/A   Clear
7:15 PM 55.4 °F - 32.0 °F 41% 30.32 in 10.0 mi WNW 9.2 mph - N/A   Clear
7:35 PM 54.5 °F - 31.6 °F 42% 30.32 in 10.0 mi WNW 9.2 mph - N/A   Clear
7:55 PM 53.6 °F - 31.5 °F 43% 30.32 in 10.0 mi WNW 10.4 mph - N/A   Clear
8:16 PM 52.3 °F - 32.0 °F 46% 30.32 in 10.0 mi NW 6.9 mph - N/A   Clear
8:35 PM 50.5 °F - 32.0 °F 49% 30.32 in 10.0 mi WNW 6.9 mph - N/A   Clear
8:55 PM 48.0 °F - 32.9 °F 56% 30.32 in 10.0 mi NNW 5.8 mph - N/A   Clear
9:15 PM 45.7 °F 43.4 °F 33.1 °F 61% 30.32 in 10.0 mi NW 4.6 mph - N/A   Clear
9:35 PM 45.5 °F 42.5 °F 32.9 °F 61% 30.33 in 10.0 mi NW 5.8 mph - N/A   Clear
9:55 PM 43.9 °F 42.3 °F 32.9 °F 65% 30.33 in 10.0 mi WNW 3.5 mph - N/A   Clear
10:15 PM 43.0 °F 41.3 °F 33.3 °F 69% 30.34 in 10.0 mi WNW 3.5 mph - N/A   Clear
10:35 PM 41.9 °F 39.0 °F 33.3 °F 71% 30.35 in 10.0 mi West 4.6 mph - N/A   Clear
10:55 PM 41.0 °F 38.0 °F 33.8 °F 76% 30.36 in 10.0 mi West 4.6 mph - N/A   Clear
11:15 PM 41.0 °F 39.0 °F 33.8 °F 76% 30.36 in 10.0 mi West 3.5 mph - N/A   Clear
11:35 PM 40.1 °F 36.9 °F 33.6 °F 78% 30.35 in 10.0 mi West 4.6 mph - N/A   Clear
11:55 PM 37.8 °F - 32.9 °F 83% 30.35 in 10.0 mi Calm Calm - N/A   Clear